Weather History for Jacksonville, FL

Change the Weather History Date:

Friday, November 30, 2012

  Actual Average Record
Temperature  
Mean Temperature 61 °F 59 °F  
Max Temperature 74 °F 70 °F 84 °F (1982)
Min Temperature 47 °F 47 °F 26 °F (1959)
Degree Days  
Heating Degree Days 4 8  
Month to date heating degree days 216 146  
Since 1 July heating degree days 248 173  
Cooling Degree Days 0 1  
Month to date cooling degree days 14 61  
Year to date cooling degree days 2743 2644  
Growing Degree Days 10 (Base 50)    
Moisture  
Dew Point 53 °F    
Average Humidity 79    
Maximum Humidity 100    
Minimum Humidity 57    
Precipitation  
Precipitation 0.00 in 0.08 in 1.81 in (1876)
Month to date precipitation 0.27 2.11  
Year to date precipitation 51.10 49.59  
Snow  
Snow 0.00 in 0.00 in 0.00 in (2001)
Month to date snowfall 0.0 0.0  
Since 1 July snowfall 0.0 0.0  
Since 1 September snowfall 0.0 0.0  
Snow Depth 0.00 in    
Sea Level Pressure  
Sea Level Pressure 30.29 in    
Wind  
Wind Speed 4 mph (NE)    
Max Wind Speed 13 mph    
Max Gust Speed 16 mph    
Visibility 7 miles    
Events      
T = Trace of Precipitation, MM = Missing Value Source: NWS Daily Summary

Daily Weather History Graph

Daily Weather History Graph

Search for Another Location

Airport:

Trip Planner

Search our weather history database for the weather conditions in past years. The results will help you decide how hot, cold, wet, or windy it might be!

Date:

Astronomy

Nov. 30, 2012 Rise Set
Actual Time 7:05 AM EST 5:25 PM EST
Civil Twilight 6:39 AM EST 5:51 PM EST
Nautical Twilight 6:09 AM EST 6:21 PM EST
Astronomical Twilight 5:40 AM EST 6:50 PM EST
Moon 7:18 PM EST (11/30) 8:37 AM EST (11/30)
Length of Visible Light 11h 12m
Length of Day
10h 19m
Waning Gibbous, 96% of the Moon is Illuminated
Nov 30
Waning Gibbous
Dec 6
Last Quarter
Dec 13
New
Dec 20
First Quarter
Dec 28
Full

Hourly Weather History & Observations

Time (EST) Temp. Dew Point Humidity Pressure Visibility Wind Dir Wind Speed Gust Speed Precip Events Conditions
12:56 AM 53.1 °F 52.0 °F 96% 30.30 in 6.0 mi North 3.5 mph - N/A   Partly Cloudy
1:56 AM 50.0 °F 48.9 °F 96% 30.30 in 5.0 mi North 3.5 mph - N/A   Partly Cloudy
2:56 AM 51.1 °F 50.0 °F 96% 30.30 in 4.0 mi Calm Calm - N/A   Partly Cloudy
3:40 AM 48.2 °F 48.2 °F 100% 30.29 in 1.0 mi NNE 3.5 mph - N/A   Partly Cloudy
3:52 AM 48.2 °F 46.4 °F 93% 30.29 in 4.0 mi NNE 3.5 mph - N/A   Clear
3:56 AM 46.9 °F 46.9 °F 100% 30.29 in 4.0 mi NNE 3.5 mph - N/A   Clear
4:56 AM 48.9 °F 48.0 °F 97% 30.30 in 3.0 mi Calm Calm - N/A   Clear
5:14 AM 48.2 °F 48.2 °F 100% 30.30 in 3.0 mi Calm Calm - N/A   Scattered Clouds
5:56 AM 50.0 °F 48.9 °F 96% 30.31 in 5.0 mi North 3.5 mph - N/A   Mostly Cloudy
6:56 AM 50.0 °F 48.9 °F 96% 30.32 in 4.0 mi Calm Calm - N/A   Scattered Clouds
7:07 AM 48.2 °F 48.2 °F 100% 30.32 in 0.8 mi Calm Calm - N/A   Scattered Clouds
7:27 AM 48.2 °F 48.2 °F 100% 30.32 in 1.8 mi Calm Calm - N/A   Scattered Clouds
7:40 AM 48.2 °F 48.2 °F 100% 30.32 in 4.0 mi Calm Calm - N/A   Scattered Clouds
7:56 AM 53.1 °F 51.1 °F 93% 30.32 in 6.0 mi Calm Calm - N/A   Scattered Clouds
8:56 AM 57.9 °F 55.9 °F 93% 30.32 in 10.0 mi NE 3.5 mph - N/A   Mostly Cloudy
9:56 AM 64.0 °F 57.0 °F 78% 30.33 in 10.0 mi NE 4.6 mph - N/A   Mostly Cloudy
10:56 AM 68.0 °F 57.9 °F 70% 30.32 in 10.0 mi NNE 6.9 mph - N/A   Mostly Cloudy
11:56 AM 70.0 °F 57.0 °F 63% 30.30 in 10.0 mi East 6.9 mph - N/A   Mostly Cloudy
12:56 PM 73.0 °F 57.0 °F 57% 30.27 in 10.0 mi NE 6.9 mph - N/A   Mostly Cloudy
1:56 PM 72.0 °F 55.0 °F 55% 30.25 in 10.0 mi ENE 8.1 mph - N/A   Mostly Cloudy
2:56 PM 70.0 °F 55.9 °F 61% 30.24 in 10.0 mi ENE 9.2 mph - N/A   Mostly Cloudy
3:56 PM 69.1 °F 55.9 °F 63% 30.25 in 10.0 mi NE 9.2 mph - N/A   Mostly Cloudy
4:56 PM 66.9 °F 57.0 °F 70% 30.25 in 10.0 mi NE 5.8 mph - N/A   Mostly Cloudy
5:56 PM 63.0 °F 57.0 °F 81% 30.25 in 10.0 mi NE 4.6 mph - N/A   Mostly Cloudy
6:56 PM 63.0 °F 57.0 °F 81% 30.25 in 10.0 mi NE 6.9 mph - N/A   Mostly Cloudy
7:56 PM 61.0 °F 57.0 °F 87% 30.27 in 10.0 mi NE 3.5 mph - N/A   Mostly Cloudy
8:56 PM 60.1 °F 57.0 °F 90% 30.27 in 10.0 mi Calm Calm - N/A   Overcast
9:56 PM 61.0 °F 57.0 °F 87% 30.27 in 10.0 mi Calm Calm - N/A   Mostly Cloudy
10:56 PM 59.0 °F 55.9 °F 90% 30.27 in 10.0 mi Calm Calm - N/A   Mostly Cloudy
11:56 PM 57.9 °F 55.9 °F 93% 30.27 in 10.0 mi North 4.6 mph - N/A   Mostly Cloudy